Regional Weather Roundup
Issued by NWS

Home | Current Version | Previous Version | Graphics & Text | Print | Product List | Glossary On
Versions: 1 2 3 4 5 6 7 8 9 10 11 12 13 14 15 16 17 18 19 20 21 22 23 24 25 26 27 28 29 30 31 32 33 34 35 36 37 38 39 40 41 42 43 44 45 46 47 48 49 50
000
ASUS45 KBOI 281110
RWRID
WEATHER ROUNDUP FOR IDAHO
NATIONAL WEATHER SERVICE BOISE ID
400 AM MST WED JAN 28 2015

NOTE: "FAIR" INDICATES FEW OR NO CLOUDS BELOW 12000 FEET
WITH NO SIGNIFICANT WEATHER AND/OR OBSTRUCTIONS TO VISIBILITY

IDZ012-014-281200-
SOUTHWEST IDAHO


CITY           SKY/WX    TMP DP  RH WIND       PRES   REMARKS
BOISE          FOG       34  34 100 CALM      30.24S VSB 1/4
CALDWELL       CLOUDY    30  25  80 SW3       30.28R VSB 1/4
MOUNTAIN HOME  FOG       32  32 100 W6        30.24R VSB 3/4 WCI  26
$$

IDZ016-017-281200-
SOUTHCENTRAL IDAHO


CITY           SKY/WX    TMP DP  RH WIND       PRES   REMARKS
BURLEY         CLOUDY    41  38  89 W9        30.18S
JEROME         FOG       35  34  96 SW7       30.20R VSB 1/4 WCI  29
TWIN FALLS     CLOUDY    42  37  82 SW9       30.20R
$$

IDZ019>023-281200-
SOUTHEAST IDAHO


CITY           SKY/WX    TMP DP  RH WIND       PRES   REMARKS
IDAHO FALLS    FOG       37  36  96 SW12      30.16R VSB 3/4 WCI  29
POCATELLO      LGT RAIN  39  39 100 SW15      30.19R WCI  31
REXBURG        LGT RAIN  50  35  56 SW8       30.14R
$$

IDZ006-010-011-018-031-032-281200-
CENTRAL IDAHO MOUNTAINS


CITY           SKY/WX    TMP DP  RH WIND       PRES   REMARKS
MCCALL         CLOUDY    31  29  92 CALM      30.19R
HAILEY         CLOUDY    34  34 100 CALM      30.17S FOG
STANLEY          N/A     34  31  88 CALM      30.19R
SALMON         CLOUDY   N/A N/A N/A CALM      30.19R
CHALLIS        CLOUDY    32  31  96 CALM      30.17R
$$

IDZ002-004-006-007-026-281200-
NORTHERN IDAHO


CITY           SKY/WX    TMP DP  RH WIND       PRES   REMARKS
LEWISTON       MOCLDY    37  36  96 CALM      30.26R
LOWELL           N/A     35  33  92 N3        30.28R
COEUR D`ALENE  CLOUDY    36  32  87 CALM      30.21R
MULLAN PASS    FOG       29  28  96 VRB3      30.13R VSB 1/4
$$



USA.gov is the U.S. government's official web portal to all federal, state and local government web resources and services.